CZ-6A DEB, 60213

Orbit data source: Space-Track

CZ-6A DEB, 60213 is space debris in SSO originally from a launch on Thu, 04 Jul 2024 UTC launched from the Taiyaun Space Center, China (TSC). Debris objects in space refer to the collection of defunct objects orbiting the Earth. Examples of debris include non-operational satellites, rocket bodies, and fragments generated from explosions, collisions, or faulty payload assembly.

Loading next visibility...
Identifier
60213, 2024-126C
Orbit
SSO
Country
Flag of CNCN / PRC
Related business
Manufacturer
SAST
Mission
Spacecraft
Bus & Motor
Unknown
Mass
~50 kg wet, ~50 kg dry
Launch date (UTC)
2024-07-04 (1 year ago)
Launch vehicle
Unknown
Launch site
Taiyaun Space Center, China (TSC)
Object type
Payload
Rocket body
Debris
Shape & HBR
Cone, 0.3 m
Radar Cross Section
0.159 m², Large (>1 m²)

Expand to show TLE details & history
Last TLE update: 9 hours ago

TLE from 9 hours ago
0 CZ-6A DEB
1 60213U 24126C   25309.98022780  .00016455  00000-0  11971-2 0  9994
2 60213  97.8349 322.1527 0004923 338.2037  21.8978 15.03879961 73116
Epoch: 2025-11-05T23:31Z
TLE epoch observation values (Epoch: 2025-11-05T23:31:31.681Z)
Latitude
-0.00005°
Longitude
-76.17442°
Altitude
554.834 km
Speed
7.586 km/s
True Right ascension
21h 28m 36s
True Declination
0° 00' 00"
Sunlit
Object was in daylight at epoch
Visualization orbit readout
Latitude
Unknown
Longitude
Unknown
Altitude
Unknown
Speed
Unknown
Apparent Right ascension
Unknown
Apparent Declination
Unknown
Sunlit
N/A
Visualization observer readout
Local Sidereal Time
04:52:50
Azimuth
Unknown
Elevation
Unknown
Doppler factor
Unknown
Orbital elements
Apogee altitude
555.364 km
Perigee altitude
548.54 km
Semi-major axis
6,930.089 km
Eccentricity
0.00049
Inclination
97.8349°
RAAN
322.1527°
Arg. of periapsis
338.2037°
True anomaly
21.91885°
Mean anomaly
21.8978°
Eccentric anomaly
21.90832°
Mean motion
3.76214 °/min
Orbital period
95.69 mins
BSTAR
0.0011971
Loading maneuver chart data...
Computing Atmospheric mass density...
Loading historical data...
Loading historical data...
Loading historical data...
Loading historical data...
Loading historical data...
Loading historical data...
Loading historical data...
Other satellites on launch #126 in the year 2024 (2024-07-04 UTC)

Documentation

Showing up to 5 results
|